星链-35181(STARLINK-35181)

导读 | 豆包AI

STARLINK-35181是美国SpaceX星链星座中的一员,于2025年9月19日发射升空。星链星座旨在构建全球卫星互联网组网,该卫星延续星链技术方案,运行于近地轨道,为全球偏远、网络欠发达地区及海上、航空场景提供高速低延迟宽带通信服务,进一步扩充了星链星座的在轨规模,助力星座全球覆盖能力的完善。

基本信息
目录编号:
65666
目录名称:
STARLINK-35181
国际标识:
2025-211Q
轨道中心:
EARTH
卫星名称:
星链-35181
卫星全名:
星链-35181(STARLINK-35181)
卫星状态:
在轨 (已飞行197 天)
发射日期:
2025-09-19 UTC
国别 :
美国 (US)
星等 :
--
轨道信息
数据来源 国际轨道数据 AOE轨道数据
星历时间 2026-04-04T06:34:14+0800
12小时前
查看轨道信息
2026-03-31T20:00:00+0800
3天前
查看轨道信息
半长轴 6927.656km 6927.662km
偏心率 0.0000728 0.0000835
轨道倾角 97.603° 97.603°
近地点辐角 96.345° 105.307°
升交点赤经 138.992° 135.601°
平近点角 263.786° 338.205°
近地点 549.014km 548.946km
远地点 550.024km 550.104km
周期 95.640分钟 95.640分钟
每日圈数 15.056475 15.056458
详细信息
固有亮度:
5
最大亮度:
2.5
卫星平台:
Starlink V1.0
覆盖范围:
全球
运营商:
太空探索技术公司
运营商所在国:
美国
制造商(研发单位):
太空探索技术公司
制造商所在国:
美国
使用方式:
暂无
卫星简介
Starlink 计划是 SpaceX 推出的全球卫星互联网项目,通过发射低轨道卫星,为全球尤其是偏远地区提供高速、低延迟的互联网服务。自 2019 年起,Starlink 已部署数千颗卫星,旨在缩小全球数字鸿沟,推动互联网普及。该项目还为军事、航空等行业提供通信支持,带来广泛经济效益。
2D轨道图
3D轨道图
轨道高度分析图
轨道倾角分析图
轨道综合分析图
查看轨道综合分析图